Location: Chapel Hill
(35.9134°N, 79.0560°W)
Time: 20:31:51
(UTC-05:00)

S-56A Canister/Altair - All Passes

Search period start: 05 November 2024 00:00
Search period end: 15 November 2024 00:00
Orbit: 635 x 2487 km, 38.9° (Epoch: 05 November)

Date Brightness Start Highest point End Pass type
(mag) Time Alt. Az. Time Alt. Az. Time Alt. Az.
05 Nov - 01:32:47 10° SW 01:45:26 65° SSE 02:00:20 10° ENE visible
05 Nov - 03:37:48 10° W 03:52:21 84° NNW 04:06:58 10° ENE visible
05 Nov - 05:44:48 10° W 06:00:08 83° N 06:12:57 10° E visible
05 Nov - 07:52:15 10° WNW 08:06:37 65° SSW 08:17:11 10° SE daylight
05 Nov - 10:01:19 10° W 10:10:21 23° SW 10:17:29 10° S daylight
05 Nov - 22:58:49 10° S 23:06:34 21° SE 23:15:46 10° E night (unlit)
06 Nov - 00:58:37 10° SW 01:10:34 60° SE 01:25:12 10° ENE visible
06 Nov - 03:03:04 10° WSW 03:17:08 86° NNW 03:32:07 10° ENE visible
06 Nov - 05:09:43 10° W 05:24:58 81° N 05:38:25 10° E visible
06 Nov - 07:17:00 10° WNW 07:31:50 71° SSW 07:43:08 10° SE daylight
06 Nov - 09:25:30 10° W 09:36:06 29° SW 09:44:18 10° S daylight
06 Nov - 22:26:06 10° SSE 22:32:16 17° SE 22:39:25 10° E night (unlit)
07 Nov - 00:24:35 10° SW 00:35:47 53° SE 00:49:58 10° ENE visible
07 Nov - 02:28:26 10° WSW 02:41:56 89° NNW 02:57:09 10° ENE visible
07 Nov - 04:34:43 10° W 04:49:43 80° N 05:03:45 10° E visible
07 Nov - 06:41:48 10° WNW 06:56:56 77° SSW 07:08:57 10° ESE daylight
07 Nov - 08:49:51 10° WNW 09:01:44 34° SW 09:10:53 10° SSE daylight
07 Nov - 21:54:18 10° SE 21:58:03 12° ESE 22:02:10 10° ESE night (unlit)
07 Nov - 23:50:42 10° SSW 00:01:06 47° SE 00:14:39 10° ENE visible
08 Nov - 01:53:56 10° WSW 02:06:48 87° SSE 02:22:07 10° ENE visible
08 Nov - 03:59:50 10° W 04:14:27 79° N 04:28:59 10° E visible
08 Nov - 06:06:40 10° WNW 06:21:56 82° SSW 06:34:38 10° ESE visible
08 Nov - 08:14:20 10° WNW 08:27:14 40° SW 08:37:16 10° SSE daylight
08 Nov - 23:16:57 10° SSW 23:26:32 41° SE 23:39:14 10° ENE visible
09 Nov - 01:19:33 10° WSW 01:31:45 83° SSE 01:47:00 10° ENE visible
09 Nov - 03:25:01 10° W 03:39:11 79° N 03:54:06 10° E visible
09 Nov - 05:31:37 10° WNW 05:46:50 86° SSW 06:00:12 10° ESE visible
09 Nov - 07:38:56 10° WNW 07:52:38 46° SW 08:03:29 10° SSE daylight
09 Nov - 09:51:38 10° WSW 09:55:49 12° WSW 09:59:40 10° SW daylight
09 Nov - 22:43:22 10° SSW 22:52:06 35° SE 23:03:42 10° ENE night (unlit)
10 Nov - 00:45:17 10° WSW 00:56:47 78° SSE 01:11:48 10° ENE visible
10 Nov - 02:50:19 10° W 03:03:55 80° N 03:19:06 10° E visible
10 Nov - 04:56:38 10° WNW 05:11:40 90° SW 05:25:37 10° ESE visible
10 Nov - 07:03:38 10° WNW 07:17:54 52° SW 07:29:33 10° SE daylight
10 Nov - 09:14:17 10° W 09:21:33 16° SW 09:27:54 10° SSW daylight
10 Nov - 22:09:57 10° S 22:17:46 29° SE 22:28:02 10° E night (unlit)
11 Nov - 00:11:09 10° SW 00:21:55 73° SSE 00:36:32 10° ENE visible
11 Nov - 02:15:43 10° W 02:28:41 80° N 02:44:01 10° E visible
11 Nov - 04:21:45 10° WNW 04:36:27 87° NNE 04:50:54 10° ESE visible
11 Nov - 06:28:27 10° WNW 06:43:03 58° SW 06:55:27 10° SE daylight
11 Nov - 08:37:52 10° W 08:47:11 21° SW 08:55:11 10° S daylight
11 Nov - 21:36:46 10° S 21:43:32 23° SE 21:52:14 10° E night (unlit)
11 Nov - 23:37:06 10° SW 23:47:09 66° SSE 00:01:14 10° ENE visible
12 Nov - 01:41:13 10° W 01:53:31 82° N 02:08:51 10° E visible
12 Nov - 03:46:57 10° WNW 04:01:13 84° NNE 04:16:04 10° ESE visible
12 Nov - 05:53:21 10° WNW 06:08:06 64° SSW 06:21:12 10° SE visible
12 Nov - 08:01:54 10° W 08:12:42 26° SW 08:22:00 10° S daylight
12 Nov - 21:03:54 10° SSE 21:09:24 18° SE 21:16:09 10° E night (unlit)
12 Nov - 23:03:11 10° SW 23:12:31 60° SE 23:25:53 10° ENE night (unlit)
13 Nov - 01:06:50 10° W 01:18:25 84° NNW 01:33:35 10° ENE visible
13 Nov - 03:12:15 10° W 03:25:57 82° N 03:41:06 10° E visible
13 Nov - 05:18:21 10° WNW 05:33:04 69° SSW 05:46:48 10° SE visible
13 Nov - 07:26:11 10° W 07:38:08 30° SW 07:48:31 10° S daylight
13 Nov - 20:31:41 10° SSE 20:35:20 13° ESE 20:39:32 10° E night (unlit)
13 Nov - 22:29:23 10° SW 22:37:59 52° SE 22:50:29 10° ENE night (unlit)
14 Nov - 00:32:31 10° WSW 00:43:24 87° NNW 00:58:17 10° ENE visible
14 Nov - 02:37:38 10° W 02:50:43 80° N 03:06:01 10° E visible
14 Nov - 04:43:27 10° WNW 04:57:59 74° SSW 05:12:15 10° SE visible
14 Nov - 06:50:42 10° WNW 07:03:28 35° SW 07:14:48 10° SSE daylight
14 Nov - 21:55:41 10° SSW 22:03:36 45° SE 22:15:04 10° ENE night (unlit)
